BBC908 ELLX-LSZH

Flight info

Callsign BBC908
Flight time 0h 41m
Altitude 25000
Route GTQ DCT BAMEV DCT BLM
Aircraft B788/H-SDE1E2E3FGHIJ2J3J4J5M1RWXY/LB1D1

Departure

Time 2026-04-30 18:42
Airport Luxembourg-Findel International Airport (ELLX)

Arrival

Time 2026-04-30 19:24
Airport Zürich Airport (LSZH)
Time Latitude Longitude Altitude Speed Heading
2026-04-30 18:16 49.63296 6.21521 1226 ft 0 kts 74°
2026-04-30 18:33 49.63294 6.21515 1226 ft 2 kts 85°
2026-04-30 18:33 49.63293 6.21495 1227 ft 1 kts 97°
2026-04-30 18:33 49.63294 6.21480 1227 ft 1 kts 114°
2026-04-30 18:34 49.63293 6.21476 1227 ft 1 kts 149°
2026-04-30 18:34 49.63291 6.21477 1227 ft 0 kts 155°
2026-04-30 18:36 49.63260 6.21500 1225 ft 8 kts 154°
2026-04-30 18:36 49.63195 6.21543 1221 ft 12 kts 155°
2026-04-30 18:36 49.63018 6.21459 1211 ft 20 kts 244°
2026-04-30 18:37 49.62962 6.21269 1212 ft 20 kts 245°
2026-04-30 18:37 49.62902 6.21072 1213 ft 20 kts 245°
2026-04-30 18:37 49.62839 6.20876 1212 ft 21 kts 242°
2026-04-30 18:37 49.62753 6.20683 1209 ft 23 kts 223°
2026-04-30 18:38 49.62619 6.20505 1201 ft 27 kts 228°
2026-04-30 18:38 49.62493 6.20265 1194 ft 30 kts 233°
2026-04-30 18:38 49.62386 6.19983 1192 ft 30 kts 240°
2026-04-30 18:38 49.62288 6.19719 1189 ft 29 kts 240°
2026-04-30 18:39 49.62205 6.19497 1184 ft 24 kts 240°
2026-04-30 18:39 49.62115 6.19260 1173 ft 27 kts 240°
2026-04-30 18:39 49.62019 6.18999 1173 ft 28 kts 239°
2026-04-30 18:39 49.61943 6.18816 1171 ft 17 kts 229°
2026-04-30 18:40 49.61844 6.18720 1171 ft 16 kts 187°
2026-04-30 18:40 49.61780 6.18813 1173 ft 12 kts 88°
2026-04-30 18:40 49.61802 6.18890 1175 ft 0 kts 60°
2026-04-30 18:41 49.61802 6.18891 1175 ft 1 kts 60°
2026-04-30 18:41 49.61835 6.18978 1173 ft 28 kts 60°
2026-04-30 18:41 49.62024 6.19483 1178 ft 80 kts 59°
2026-04-30 18:41 49.62374 6.20426 1194 ft 122 kts 60°
2026-04-30 18:42 49.62853 6.21706 1295 ft 150 kts 57°
2026-04-30 18:42 49.63990 6.24773 2695 ft 164 kts 63°
2026-04-30 18:42 49.64389 6.26427 3268 ft 181 kts 88°
2026-04-30 18:45 49.50807 6.43097 11219 ft 312 kts 149°
2026-04-30 18:45 49.48868 6.44628 12327 ft 315 kts 154°
2026-04-30 18:45 49.46780 6.45827 13184 ft 327 kts 159°
2026-04-30 18:46 49.44646 6.46873 14258 ft 326 kts 159°
2026-04-30 18:46 49.42468 6.48019 15104 ft 332 kts 157°
2026-04-30 18:46 49.40278 6.49243 15968 ft 336 kts 157°
2026-04-30 18:46 49.38052 6.50467 16798 ft 342 kts 158°
2026-04-30 18:47 49.35792 6.51680 17619 ft 346 kts 158°
2026-04-30 18:47 49.33533 6.52895 18416 ft 351 kts 157°
2026-04-30 18:47 49.31211 6.54152 19094 ft 355 kts 157°
2026-04-30 18:47 49.28869 6.55420 19786 ft 358 kts 157°
2026-04-30 18:48 49.26501 6.56697 20443 ft 362 kts 158°
2026-04-30 18:48 49.24107 6.57985 21100 ft 366 kts 158°
2026-04-30 18:48 49.21691 6.59285 21767 ft 369 kts 158°
2026-04-30 18:48 49.19286 6.60578 22442 ft 372 kts 158°
2026-04-30 18:49 49.16832 6.61897 23069 ft 376 kts 157°
2026-04-30 18:49 49.14351 6.63228 23684 ft 379 kts 157°
2026-04-30 18:49 49.11848 6.64570 24224 ft 383 kts 158°
2026-04-30 18:49 49.09327 6.65919 24875 ft 382 kts 158°
2026-04-30 18:50 49.06801 6.67270 25247 ft 389 kts 158°
2026-04-30 18:50 49.04227 6.68647 25240 ft 390 kts 158°
2026-04-30 18:50 49.01713 6.69985 25245 ft 384 kts 158°
2026-04-30 18:50 48.99200 6.71323 25245 ft 382 kts 157°
2026-04-30 18:51 48.96729 6.72822 25243 ft 381 kts 155°
2026-04-30 18:51 48.94245 6.74272 25241 ft 383 kts 156°
2026-04-30 18:51 48.91749 6.75699 25242 ft 383 kts 156°
2026-04-30 18:51 48.89266 6.77177 25239 ft 383 kts 155°
2026-04-30 18:52 48.86788 6.78670 25240 ft 382 kts 155°
2026-04-30 18:52 48.84306 6.80140 25237 ft 382 kts 155°
2026-04-30 18:52 48.81853 6.81581 25236 ft 382 kts 155°
2026-04-30 18:52 48.79376 6.83042 25239 ft 381 kts 155°
2026-04-30 18:53 48.76896 6.84510 25237 ft 382 kts 155°
2026-04-30 18:53 48.74423 6.85970 25241 ft 382 kts 155°
2026-04-30 18:53 48.71939 6.87430 25238 ft 382 kts 155°
2026-04-30 18:53 48.69459 6.88889 25239 ft 382 kts 155°
2026-04-30 18:54 48.67009 6.90329 25239 ft 382 kts 155°
2026-04-30 18:54 48.64528 6.91786 25237 ft 383 kts 155°
2026-04-30 18:54 48.62044 6.93242 25241 ft 383 kts 155°
2026-04-30 18:54 48.59548 6.94705 25240 ft 384 kts 155°
2026-04-30 18:55 48.57059 6.96161 25242 ft 384 kts 155°
2026-04-30 18:55 48.52077 6.99072 25238 ft 384 kts 155°
2026-04-30 18:55 48.49584 7.00526 25241 ft 384 kts 156°
2026-04-30 18:56 48.44598 7.03429 25247 ft 383 kts 156°
2026-04-30 18:56 48.42140 7.04859 25244 ft 383 kts 155°
2026-04-30 18:56 48.39652 7.06305 25245 ft 383 kts 155°
2026-04-30 18:57 48.34675 7.09191 25246 ft 383 kts 155°
2026-04-30 18:57 48.32179 7.10636 25248 ft 383 kts 155°
2026-04-30 18:57 48.29688 7.12077 25246 ft 384 kts 155°
2026-04-30 18:58 48.24699 7.14958 25246 ft 384 kts 155°
2026-04-30 18:58 48.22203 7.16397 25246 ft 384 kts 155°
2026-04-30 18:58 48.19708 7.17835 25246 ft 383 kts 155°
2026-04-30 18:59 48.14760 7.20681 25249 ft 383 kts 156°
2026-04-30 19:00 48.07274 7.24975 25244 ft 383 kts 156°
2026-04-30 19:00 48.04782 7.26401 25248 ft 383 kts 156°
2026-04-30 19:00 47.99888 7.29197 24620 ft 378 kts 156°
2026-04-30 19:01 47.94949 7.32017 23529 ft 381 kts 156°
2026-04-30 19:01 47.92479 7.33422 22983 ft 379 kts 156°
2026-04-30 19:02 47.87581 7.36207 21901 ft 374 kts 156°
2026-04-30 19:02 47.82774 7.38936 20849 ft 368 kts 156°
2026-04-30 19:03 47.78012 7.41634 19812 ft 363 kts 156°
2026-04-30 19:03 47.73328 7.44284 18781 ft 359 kts 156°
2026-04-30 19:04 47.68936 7.46749 19064 ft 300 kts 156°
2026-04-30 19:04 47.65183 7.48887 18588 ft 280 kts 153°
2026-04-30 19:05 47.62832 7.52431 18513 ft 219 kts 98°
2026-04-30 19:05 47.62040 7.56376 17946 ft 204 kts 109°
2026-04-30 19:06 47.60950 7.60811 15846 ft 251 kts 107°
2026-04-30 19:06 47.60346 7.63379 14627 ft 278 kts 108°
2026-04-30 19:06 47.58999 7.68982 13417 ft 291 kts 108°
2026-04-30 19:07 47.57655 7.74602 12469 ft 288 kts 108°
2026-04-30 19:07 47.56967 7.77391 11980 ft 287 kts 110°
2026-04-30 19:08 47.55463 7.82852 11018 ft 285 kts 114°
2026-04-30 19:08 47.53654 7.88035 10128 ft 284 kts 115°
2026-04-30 19:08 47.52799 7.90662 9654 ft 282 kts 115°
2026-04-30 19:09 47.51108 7.95844 8646 ft 277 kts 115°
2026-04-30 19:09 47.50253 7.98390 8193 ft 275 kts 118°
2026-04-30 19:09 47.49194 8.00741 7779 ft 274 kts 126°
2026-04-30 19:10 47.46770 8.05059 6997 ft 268 kts 130°
2026-04-30 19:10 47.44369 8.09147 6984 ft 260 kts 129°
2026-04-30 19:11 47.43193 8.11190 6985 ft 261 kts 129°
2026-04-30 19:11 47.40847 8.15230 6995 ft 260 kts 129°
2026-04-30 19:11 47.39670 8.17257 6991 ft 260 kts 129°
2026-04-30 19:12 47.38491 8.19286 6989 ft 260 kts 129°
2026-04-30 19:12 47.37310 8.21316 6995 ft 260 kts 129°
2026-04-30 19:12 47.36124 8.23352 6994 ft 260 kts 129°
2026-04-30 19:13 47.33779 8.27372 6994 ft 260 kts 130°
2026-04-30 19:13 47.31415 8.31423 6987 ft 260 kts 130°
2026-04-30 19:13 47.30234 8.33445 6972 ft 260 kts 130°
2026-04-30 19:14 47.29048 8.35470 6974 ft 261 kts 130°
2026-04-30 19:14 47.27862 8.37503 6976 ft 262 kts 130°
2026-04-30 19:14 47.26679 8.39516 6886 ft 255 kts 130°
2026-04-30 19:14 47.25564 8.41417 6861 ft 238 kts 130°
2026-04-30 19:15 47.24478 8.43269 6486 ft 239 kts 130°
2026-04-30 19:15 47.22336 8.46915 5985 ft 232 kts 130°
2026-04-30 19:15 47.21274 8.48724 5979 ft 234 kts 130°
2026-04-30 19:16 47.20206 8.50543 5968 ft 234 kts 130°
2026-04-30 19:16 47.19161 8.52324 5968 ft 227 kts 128°
2026-04-30 19:16 47.18986 8.56541 5968 ft 216 kts 68°
2026-04-30 19:17 47.19598 8.58530 5921 ft 211 kts 66°
2026-04-30 19:17 47.20819 8.62282 5638 ft 198 kts 65°
2026-04-30 19:17 47.21425 8.64069 5468 ft 193 kts 60°
2026-04-30 19:18 47.22832 8.65634 5171 ft 193 kts 32°
2026-04-30 19:18 47.24772 8.67140 4991 ft 187 kts 22°
2026-04-30 19:18 47.26057 8.67554 4998 ft 192 kts
2026-04-30 19:19 47.27409 8.67390 4984 ft 197 kts 349°
2026-04-30 19:19 47.28678 8.66659 5007 ft 197 kts 336°
2026-04-30 19:19 47.30737 8.65147 4834 ft 202 kts 336°
2026-04-30 19:20 47.31981 8.64292 4554 ft 198 kts 338°
2026-04-30 19:20 47.33225 8.63441 4243 ft 195 kts 339°
2026-04-30 19:20 47.35585 8.61827 3668 ft 176 kts 339°
2026-04-30 19:21 47.36675 8.61064 3449 ft 172 kts 340°
2026-04-30 19:21 47.38732 8.59672 2961 ft 161 kts 342°
2026-04-30 19:22 47.40639 8.58363 2473 ft 140 kts 342°
2026-04-30 19:22 47.43242 8.56557 1738 ft 134 kts 338°
2026-04-30 19:23 47.45606 8.54948 1406 ft 79 kts 333°
2026-04-30 19:24 47.46114 8.54640 1411 ft 4 kts 31°
2026-04-30 19:24 47.46119 8.54651 1413 ft 3 kts 53°
2026-04-30 19:24 47.46093 8.54721 1410 ft 7 kts 140°
2026-04-30 19:25 47.45961 8.54964 1407 ft 13 kts 127°
2026-04-30 19:26 47.45893 8.55244 1406 ft 15 kts 96°
2026-04-30 19:26 47.45885 8.55522 1405 ft 6 kts 67°
2026-04-30 19:26 47.45911 8.55551 1404 ft 4 kts 23°
2026-04-30 19:27 47.45952 8.55591 1412 ft 3 kts 47°
2026-04-30 19:27 47.45994 8.55615 1407 ft 4 kts
2026-04-30 19:28 47.46026 8.55621 1408 ft 5 kts
2026-04-30 19:28 47.46039 8.55623 1408 ft 0 kts